Powrót do katalogu

CZ-6A DEB

AktywnyPO
NORAD 61292·DEBRIS·🇨🇳 China

Wystrzelony Aug 6, 2024 z Taiyuan Satellite Launch Center

Loading…

Następne Przeloty (najbliższe 24 godziny)

TLE

ŚwieżeSource: Space-Track

Epoka: Sep 14, 2026, 10:34 UTC

1 61292U 24140TD  26257.44029887  .00001521  00000-0  33885-3 0  9994
2 61292  89.0344 263.6405 0095158 333.3249  26.3080 14.53665574108353

Śledź CZ-6A DEB w czasie rzeczywistym z AllMySat

Download on the App Store